This is the latest recevied weather packets stored in our database for station/object OK2ILA-14. If no packets are shown the sender has not sent any weather packets the latest 10 day(s).
| Time | Temp. | Humidity | Pressure | Rain* | Wind** | Luminosity | Snow |
|---|---|---|---|---|---|---|---|
| 1777291442 | 22.78° C | 25% | 1020.8 hPa | - | - | - | - |
| 1777289042 | 21.11° C | 26% | 1021.2 hPa | - | - | - | - |
| 1777288442 | 20° C | 25% | 1021.3 hPa | - | - | - | - |
| 1777287849 | 21.11° C | 26% | 1021.3 hPa | - | - | - | - |
| 1777286041 | 19.44° C | 26% | 1021.5 hPa | - | - | - | - |
| 1777285441 | 18.33° C | 28% | 1021.6 hPa | - | - | - | - |
| 1777284841 | 18.89° C | 28% | 1021.7 hPa | - | - | - | - |
| 1777284241 | 17.78° C | 28% | 1021.9 hPa | - | - | - | - |
| 1777281885 | 18.33° C | 29% | 1022.2 hPa | - | - | - | - |
| 1777281285 | 17.22° C | 29% | 1022.4 hPa | - | - | - | - |
| 1777280684 | 16.67° C | 31% | 1022.5 hPa | - | - | - | - |
| 1777280084 | 16.11° C | 31% | 1022.6 hPa | - | - | - | - |
| 1777278884 | 15.56° C | 31% | 1022.8 hPa | - | - | - | - |
| 1777278284 | 16.11° C | 31% | 1022.8 hPa | - | - | - | - |
| 1777277684 | 15.56° C | 32% | 1022.9 hPa | - | - | - | - |
| 1777277083 | 14.44° C | 34% | 1022.9 hPa | - | - | - | - |
| 1777276483 | 13.89° C | 33% | 1023 hPa | - | - | - | - |
| 1777275290 | 13.89° C | 36% | 1023 hPa | - | - | - | - |
| 1777274683 | 13.33° C | 35% | 1023.1 hPa | - | - | - | - |
| 1777274083 | 13.33° C | 36% | 1023 hPa | - | - | - | - |
| 1777273483 | 14.44° C | 39% | 1023.1 hPa | - | - | - | - |
| 1777272882 | 13.89° C | 41% | 1023.1 hPa | - | - | - | - |
| 1777272282 | 12.78° C | 44% | 1023.1 hPa | - | - | - | - |
| 1777271682 | 12.22° C | 46% | 1023.3 hPa | - | - | - | - |
| 1777271082 | 11.67° C | 48% | 1023.4 hPa | - | - | - | - |
* Rain since midnight (hover to see other rain measurements)
** Current wind speed in m/s (hover to see current wind gust speed)